Regional Weather Roundup
Issued by NWS Cleveland, OH

Home | Current Version | Previous Version | Graphics & Text | Print | Product List | Glossary On
Versions: 1 2 3 4 5 6 7 8 9 10 11 12 13 14 15 16 17 18 19 20 21 22 23 24 25 26 27 28 29 30 31 32 33 34 35 36 37 38 39 40 41 42 43 44 45 46 47 48 49 50
000
ASUS41 KCLE 261400
RWRCLE
OHIO REGIONAL WEATHER ROUNDUP
NATIONAL WEATHER SERVICE WILMINGTON, OH
1000 AM EDT FRI MAY 26 2017

NOTE: "FAIR" INDICATES FEW OR NO CLOUDS BELOW 12,000 FEET WITH NO
SIGNIFICANT WEATHER AND/OR OBSTRUCTIONS TO VISIBILITY.

OHZ001>008-015>018-024>027-034-035-043-044-261500-
   NORTHWEST OHIO

CITY           SKY/WX    TMP DP  RH WIND       PRES   REMARKS
DEFIANCE       CLOUDY    56  51  84 W5        29.88S
FINDLAY        CLOUDY    59  52  77 W10       29.86S
TOLEDO EXPRESS CLOUDY    59  52  77 W10       29.85R
TOLEDO EXEC    CLOUDY    60  55  83 NW7       29.85S
LIMA           CLOUDY    56  54  93 NW10      29.89R
$$

OHZ009>014-019>023-028>033-038-089-261500-
   NORTHEAST OHIO

CITY           SKY/WX    TMP DP  RH WIND       PRES   REMARKS
CLE-HOPKINS    DRIZZLE   59  53  80 NW9       29.84R
CLE-LAKEFRONT  CLOUDY    58  51  78 NW15      29.81R
CUY CO. ARPT   CLOUDY    57  52  82 NW14      29.82R
LORAIN-ELYRIA  CLOUDY    57  49  74 NW12      29.84R
ASHTABULA      CLOUDY    54  53  97 NW7       29.80R
AKRON-CANTON   LGT RAIN  57  53  86 NW9       29.82R FOG
WOOSTER        NOT AVBL
MANSFIELD      CLOUDY    57  55  93 W8        29.85R
YOUNGSTOWN     LGT RAIN  55  53  93 NW14      29.80R
$$

OHZ042-051>053-060>062-070>072-077>081-261500-
  SOUTHWEST OHIO

CITY           SKY/WX    TMP DP  RH WIND       PRES   REMARKS
CINC-COVINGTON PTSUNNY   65  57  75 SW7       29.94R
CINC-LUNKEN    FAIR      67  59  75 CALM      29.94R
HAMILTON       FAIR      65  59  81 SW7       29.94R
DAYTON         NOT AVBL
WRIGHT-PAT AFB NOT AVBL
DAYTON GENERAL FAIR      65  56  72 W8        29.92R
WILMINGTON     FAIR      64  57  78 W10       29.91R
$$

OHZ036-037-039>041-045>050-054>059-063>069-073>076-082>088-261500-
  CENTRAL AND SOUTHEAST OHIO

CITY           SKY/WX    TMP DP  RH WIND       PRES   REMARKS
COLUMBUS       FAIR      65  56  72 W13       29.87R
OSU AIRPORT    FAIR      64  56  75 W15       29.88R
BOLTON FIELD   SUNNY     63  55  77 W12G18    29.89R
RICKENBACK AFB NOT AVBL
NEWARK         PTSUNNY   63  54  72 W8        29.87R
MARION         CLOUDY    59  54  83 NW9       29.88R
LANCASTER      FAIR      66  55  67 W9G20     29.89R
ZANESVILLE     CLOUDY    62  54  74 W8        29.87R
NEW PHILLY     CLOUDY    61  56  83 W8        29.84R
$$




USA.gov is the U.S. government's official web portal to all federal, state and local government web resources and services.